[[{"header":{"parameterUnit":"m.s-1","parameterCategory":1,"la1":30.2991,"la2":30.254,"lo1":-89.0895,"lo2":-89.0444,"dy":0.0017,"dx":0.0017,"nx":28,"ny":28,"refTime":"2023-07-18T21:00:00:Z","depth":0,"parameterNumber":2,"parameterNumberName":"U-component_of_WINDS"},"data":[0,0,0,0,0,0,0,0,0,0,0,0,0,0,0,0,0,0,0,0,0,0,0,0,0,0,0,0,0,0,0,0,0,0,0,0,0,0,0,0,0,0,0,0,0,0,0,0,0,0,0,0,0,0,0,0,0,0,1.8253,1.8253,0,1.8226,1.8226,1.8226,1.8225,1.8226,1.8226,1.8226,1.8196,1.8195,1.8194,0,0,0,0,0,0,0,0,0,0,0,0,0,1.8303,1.8302,1.8253,1.8253,1.8253,1.8226,1.8226,1.8226,1.8225,1.8226,1.8226,1.8226,1.8196,1.8195,1.8194,0,0,0,0,0,0,0,0,0,0,0,0,0,1.8279,1.8301,1.8253,1.8249,1.8249,1.8226,1.8226,1.8225,1.8225,1.8226,1.8226,1.8227,1.8197,1.8195,1.8194,1.8173,0,0,1.8188,1.8188,0,0,0,0,0,0,0,0,1.828,1.8277,1.825,1.825,1.8249,1.823,1.8232,1.8208,1.8225,1.8234,1.8226,1.8227,1.8207,1.8204,1.8198,1.8171,1.817,1.8188,1.8187,1.8186,1.8186,0,0,0,0,0,0,0,1.8282,1.8278,1.8242,1.825,1.8249,1.8248,1.8245,1.8228,1.8218,1.8233,1.8233,1.823,1.8206,1.8199,1.8197,1.817,1.8188,1.8187,1.8186,1.8185,1.8124,1.8124,0,0,0,0,0,0,1.8285,1.828,1.8243,1.8242,1.8266,1.8247,1.8244,1.8235,1.8218,1.8216,1.823,1.823,1.8202,1.8199,1.8196,1.817,1.8186,1.8185,1.8184,1.8125,1.8124,1.8124,0,0,0,0,0,0,1.8286,1.8281,1.8244,1.8261,1.8256,1.8245,1.8236,1.8234,1.8228,1.8215,1.8213,1.8225,1.8202,1.8198,1.8179,1.8169,1.8184,1.8183,1.8126,1.8125,1.8124,1.8118,0,0,0,0,0,0,1.8287,1.8282,1.8274,1.826,1.8255,1.8228,1.8235,1.8234,1.8225,1.8225,1.821,1.8208,1.8203,1.8181,1.8177,1.8167,1.8181,1.8126,1.8125,1.8124,1.8119,1.8117,1.8116,0,0,0,0,0,1.8289,1.8273,1.8274,1.8269,1.8245,1.8227,1.8224,1.8219,1.8224,1.8216,1.8208,1.8208,1.8171,1.8179,1.8174,1.8164,1.8127,1.8126,1.8124,1.812,1.8118,1.8116,0,0,0,0,0,0,1.8285,1.8271,1.8272,1.8251,1.8241,1.8227,1.8217,1.8217,1.8204,1.8205,1.8198,1.8195,1.8175,1.8168,1.8177,1.8143,1.815,1.8147,1.8148,1.8146,1.8144,1.8146,1.818,0,0,0,0,0,1.8282,1.8269,1.8258,1.8241,1.8235,1.8227,1.8219,1.8216,1.8205,1.82,1.819,1.8179,1.8164,1.8155,1.8141,1.8119,1.8115,1.8109,1.8107,1.8106,1.8104,1.8091,1.8088,1.8119,1.8119,1.8119,0,0,1.8275,1.8266,1.8258,1.824,1.8231,1.8217,1.8223,1.8208,1.8198,1.8197,1.8178,1.8171,1.8157,1.8136,1.8126,1.8129,1.8094,1.8104,1.8103,1.8101,1.8089,1.8086,1.8084,1.8118,1.8118,1.8118,0,0,1.8255,1.8247,1.8232,1.8224,1.8211,1.8206,1.8202,1.8189,1.8185,1.8166,1.8165,1.8152,1.8128,1.8118,1.811,1.8087,1.8087,1.8083,1.8073,1.8061,1.8058,1.8056,1.8047,1.8044,1.8081,1.8081,1.8081,0,1.8247,1.8228,1.8224,1.821,1.8201,1.8201,1.8186,1.8177,1.816,1.8154,1.8158,1.8128,1.8119,1.8095,1.809,1.8084,1.8079,1.8084,1.8059,1.8057,1.8055,1.8046,1.8043,1.8081,1.8081,1.8081,1.8081,0,1.8219,1.8205,1.8194,1.8179,1.817,1.8154,1.8148,1.8139,1.8137,1.8132,1.8112,1.8101,1.8085,1.808,1.8077,1.8056,1.8058,1.8061,1.8067,1.8052,1.8043,1.804,1.808,1.808,1.808,1.808,0,0,1.8194,1.8178,1.8174,1.8167,1.8154,1.8142,1.8127,1.8113,1.8105,1.8093,1.808,1.806,1.8062,1.8053,1.805,1.804,1.8022,1.8044,1.8043,1.8039,1.7996,1.7993,1.799,1.8022,1.8021,1.8021,1.7997,0,1.8172,1.8146,1.8143,1.8119,1.8106,1.8106,1.8093,1.8083,1.8078,1.8065,1.8059,1.8044,1.805,1.8044,1.8034,1.8026,1.8013,1.8028,1.8008,1.8008,1.801,1.7986,1.7982,1.796,1.7994,1.7994,1.7993,0,1.8142,1.8131,1.8106,1.8095,1.8089,1.8078,1.8064,1.8052,1.8041,1.8038,1.8028,1.8027,1.801,1.8019,1.7996,1.8006,1.7998,1.7993,1.7992,1.7989,1.7998,1.7981,1.7953,1.795,1.7988,1.7989,1.7989,0,1.8126,1.8105,1.8087,1.8081,1.8068,1.8059,1.8053,1.8043,1.8034,1.8022,1.8016,1.8002,1.7994,1.7983,1.7978,1.7984,1.7955,1.7963,1.7951,1.7951,1.7943,1.7944,1.7913,1.794,1.794,1.794,1.7941,0,1.8101,1.8085,1.8079,1.8068,1.8051,1.8048,1.803,1.8025,1.8015,1.8003,1.8003,1.799,1.7985,1.7972,1.7968,1.7949,1.7946,1.7942,1.7941,1.7941,1.7941,1.7935,1.7935,1.794,1.794,1.794,1.794,0,1.8078,1.8074,1.8055,1.8044,1.8041,1.8029,1.8019,1.8008,1.8004,1.7988,1.7984,1.7976,1.7961,1.7955,1.7936,1.7933,1.7911,1.7912,1.7915,1.7914,1.7902,1.7903,1.7865,1.786,1.7892,1.7892,1.7891,0,1.8062,1.805,1.8039,1.8031,1.8025,1.8012,1.8003,1.8,1.7991,1.7978,1.7968,1.7953,1.7941,1.7917,1.7909,1.7894,1.7894,1.7882,1.7892,1.7892,1.7892,1.7893,1.7891,1.7879,1.7879,1.7879,1.7879,0,1.8033,1.8032,1.802,1.8007,1.7998,1.7987,1.7977,1.7971,1.7966,1.7956,1.7941,1.7931,1.7913,1.7898,1.7883,1.7876,1.7876,1.7876,1.7872,1.7872,1.7874,1.7871,1.7909,1.7876,1.7877,1.7877,1.7877,1.7877,1.8012,1.8002,1.7992,1.7979,1.7972,1.7963,1.7952,1.7946,1.7934,1.7919,1.7918,1.7901,1.7891,1.7871,1.7864,1.7851,1.7854,1.7848,1.7847,1.7845,1.7844,1.7877,1.7848,1.7848,1.7848,1.7848,1.7848,0,1.7982,1.7977,1.7965,1.7951,1.7941,1.7944,1.7933,1.7924,1.791,1.79,1.7888,1.7871,1.7857,1.7848,1.7834,1.7825,1.7824,1.7821,1.7821,1.7819,1.7842,1.7847,1.7821,1.7821,1.7821,1.7821,1.7821,1.7822,1.7965,1.7948,1.7946,1.7924,1.7918,1.7903,1.7896,1.7888,1.788,1.7861,1.785,1.7845,1.7835,1.782,1.7807,1.7805,1.7799,1.7795,1.7793,1.7815,1.7817,1.782,1.7824,1.7794,1.7794,1.7771,1.777,1.777]},{"header":{"parameterUnit":"m.s-1","parameterCategory":1,"la1":30.2991,"la2":30.254,"lo1":-89.0895,"lo2":-89.0444,"dy":0.0017,"dx":0.0017,"nx":28,"ny":28,"refTime":"2023-07-18T21:00:00:Z","depth":0,"parameterNumber":3,"parameterNumberName":"V-component_of_WINDS"},"data":[0,0,0,0,0,0,0,0,0,0,0,0,0,0,0,0,0,0,0,0,0,0,0,0,0,0,0,0,0,0,0,0,0,0,0,0,0,0,0,0,0,0,0,0,0,0,0,0,0,0,0,0,0,0,0,0,0,0,1.2204,1.2204,0,1.2154,1.2154,1.2153,1.2153,1.2153,1.2154,1.2155,1.2098,1.2096,1.2094,0,0,0,0,0,0,0,0,0,0,0,0,0,1.2295,1.2293,1.2204,1.2204,1.2203,1.2154,1.2154,1.2153,1.2152,1.2153,1.2154,1.2155,1.2098,1.2096,1.2093,0,0,0,0,0,0,0,0,0,0,0,0,0,1.2251,1.2292,1.2205,1.2197,1.2196,1.2154,1.2153,1.2153,1.2152,1.2153,1.2154,1.2155,1.2099,1.2096,1.2093,1.2054,0,0,1.2083,1.2082,0,0,0,0,0,0,0,0,1.2253,1.2248,1.2199,1.2198,1.2196,1.2161,1.2165,1.2119,1.2152,1.2169,1.2155,1.2156,1.2118,1.2113,1.2101,1.2051,1.2048,1.2083,1.2081,1.208,1.2079,0,0,0,0,0,0,0,1.2256,1.225,1.2184,1.2198,1.2197,1.2195,1.219,1.2156,1.2138,1.2167,1.2167,1.2162,1.2117,1.2104,1.21,1.2048,1.2083,1.208,1.2078,1.2077,1.1961,1.196,0,0,0,0,0,0,1.2262,1.2252,1.2186,1.2183,1.2228,1.2192,1.2187,1.2171,1.2138,1.2135,1.2161,1.2162,1.2109,1.2104,1.2098,1.2048,1.208,1.2077,1.2075,1.1962,1.1961,1.1959,0,0,0,0,0,0,1.2264,1.2256,1.2188,1.2218,1.2209,1.219,1.2172,1.217,1.2157,1.2134,1.213,1.2151,1.211,1.2102,1.2065,1.2046,1.2075,1.2072,1.1963,1.1961,1.196,1.195,0,0,0,0,0,0,1.2266,1.2257,1.2243,1.2217,1.2207,1.2157,1.2171,1.2168,1.2152,1.2153,1.2124,1.212,1.211,1.2069,1.2061,1.2043,1.207,1.1965,1.1963,1.196,1.1952,1.1948,1.1945,0,0,0,0,0,1.2269,1.2241,1.2242,1.2234,1.219,1.2156,1.215,1.2141,1.2151,1.2135,1.212,1.2121,1.205,1.2066,1.2057,1.2036,1.1966,1.1963,1.1961,1.1953,1.1949,1.1945,0,0,0,0,0,0,1.2263,1.2238,1.2238,1.2201,1.2181,1.2156,1.2137,1.2137,1.2112,1.2114,1.2102,1.2095,1.2057,1.2043,1.2061,1.1996,1.2009,1.2004,1.2006,1.2002,1.1999,1.2002,1.2067,0,0,0,0,0,1.2258,1.2234,1.2213,1.2182,1.2172,1.2156,1.2141,1.2136,1.2114,1.2105,1.2087,1.2064,1.2037,1.2019,1.1992,1.195,1.1943,1.1932,1.1928,1.1926,1.1921,1.1897,1.1891,1.1951,1.1951,1.1951,0,0,1.2246,1.2229,1.2215,1.218,1.2164,1.2138,1.2149,1.2122,1.2102,1.21,1.2064,1.205,1.2023,1.1983,1.1964,1.197,1.1903,1.1922,1.192,1.1917,1.1893,1.1888,1.1883,1.1949,1.1949,1.1949,0,0,1.221,1.2196,1.2169,1.2152,1.2128,1.2118,1.2111,1.2086,1.2078,1.2041,1.2039,1.2014,1.1968,1.1949,1.1933,1.189,1.1888,1.1881,1.1863,1.1839,1.1834,1.183,1.1813,1.1808,1.1877,1.1877,1.1877,0,1.2198,1.2161,1.2154,1.2126,1.211,1.211,1.208,1.2064,1.2032,1.202,1.2028,1.1969,1.1951,1.1905,1.1895,1.1882,1.1873,1.1884,1.1836,1.1831,1.1827,1.1811,1.1805,1.1877,1.1877,1.1877,1.1877,0,1.2146,1.212,1.21,1.2071,1.2053,1.2025,1.2011,1.1994,1.199,1.1978,1.194,1.1919,1.1887,1.1876,1.1872,1.183,1.1834,1.1839,1.1851,1.1821,1.1806,1.1799,1.1875,1.1876,1.1876,1.1876,0,0,1.2105,1.2072,1.2065,1.2051,1.2024,1.2003,1.1974,1.1945,1.1929,1.1907,1.1881,1.1841,1.1845,1.1827,1.182,1.18,1.1765,1.1807,1.1806,1.1799,1.1716,1.1712,1.1705,1.1765,1.1764,1.1763,1.1718,0,1.2066,1.2016,1.2009,1.1964,1.1939,1.1938,1.1912,1.1891,1.188,1.1855,1.1842,1.1813,1.1822,1.1811,1.179,1.1774,1.1748,1.1777,1.1738,1.1737,1.1744,1.1697,1.1692,1.1651,1.1712,1.1711,1.171,0,1.2013,1.1991,1.1945,1.1921,1.191,1.1887,1.1859,1.1837,1.1813,1.1806,1.1786,1.1781,1.1749,1.1764,1.1718,1.1738,1.1721,1.1711,1.1709,1.1704,1.1721,1.1689,1.1638,1.1631,1.1701,1.1701,1.1702,0,1.1986,1.1945,1.1911,1.1899,1.1871,1.1855,1.1842,1.1819,1.1802,1.1777,1.1765,1.1737,1.172,1.1697,1.1684,1.1697,1.1639,1.1653,1.163,1.163,1.1617,1.1618,1.1561,1.1608,1.1608,1.1609,1.1609,0,1.1943,1.1914,1.1899,1.1878,1.1845,1.1836,1.1803,1.179,1.1769,1.1745,1.1741,1.1718,1.1703,1.1676,1.1666,1.1628,1.1621,1.1613,1.161,1.1613,1.1614,1.1601,1.1603,1.1607,1.1607,1.1608,1.1608,0,1.1907,1.1896,1.1859,1.1835,1.1828,1.1805,1.1784,1.1762,1.1751,1.1719,1.1711,1.1692,1.1661,1.1646,1.1607,1.16,1.1557,1.1557,1.1566,1.1564,1.1542,1.1544,1.1474,1.1463,1.1519,1.1519,1.1518,0,1.1879,1.1857,1.1831,1.1815,1.1802,1.1777,1.1759,1.1749,1.1731,1.1702,1.1683,1.1653,1.1627,1.1577,1.1558,1.1528,1.1526,1.1504,1.1521,1.1524,1.1524,1.1525,1.1522,1.15,1.1499,1.1499,1.1499,0,1.1831,1.1826,1.1803,1.1776,1.1756,1.1735,1.1714,1.17,1.1686,1.1666,1.1635,1.1615,1.1576,1.1544,1.1513,1.1497,1.1494,1.1494,1.1486,1.1488,1.1493,1.1489,1.1556,1.1495,1.1495,1.1495,1.1496,1.1496,1.1797,1.1777,1.1756,1.1729,1.1712,1.1692,1.1671,1.1658,1.1632,1.16,1.1595,1.1562,1.1537,1.1495,1.1478,1.145,1.1455,1.1445,1.1442,1.144,1.1438,1.1499,1.1445,1.1445,1.1445,1.1445,1.1445,0,1.1747,1.1734,1.1709,1.168,1.1659,1.1661,1.1638,1.1619,1.159,1.1568,1.1544,1.1507,1.1477,1.1456,1.1424,1.1406,1.1404,1.1398,1.1398,1.1394,1.1436,1.1445,1.14,1.14,1.14,1.14,1.14,1.14,1.1719,1.1685,1.1678,1.1634,1.1621,1.1589,1.1575,1.1556,1.1539,1.1499,1.1474,1.1462,1.144,1.1407,1.1378,1.1373,1.136,1.1354,1.1348,1.1387,1.1392,1.1396,1.1404,1.1352,1.1352,1.1309,1.1308,1.1308]}]]